SCP
0 0 0 0 0 0 0 0 0 0 0 0 0 0 0 0 0 1 1 1 1 1 1 1 1 1 1 1 1 1 1 1 1 1 1 1 0 0 0 0 0 0 0 0
0 0 0 0 0 0 0 0 0 0 0 0 0 0 0 0 0 1 1 1 1 1 1 1 1 1 1 1 1 1 1 1 1 1 1 1 0 0 0 0 0 0 0 0
0 0 0 0 0 0 0 0 0 0 0 0 0 0 0 0 1 1 1 1 1 1 1 1 1 1 1 1 1 1 1 1 1 1 1 0 0 0 0 0 0 0 0 0
0 0 0 0 0 0 0 0 0 0 0 0 0 0 0 0 1 1 1 1 1 1 1 1 1 1 1 1 1 1 1 1 1 1 1 0 0 0 0 0 0 0 0 0
0 0 0 0 0 0 0 0 0 0 0 0 0 0 0 0 1 1 1 1 1 1 1 1 1 1 1 1 1 1 1 1 1 1 1 0 0 0 0 0 0 0 0 0
0 0 0 0 0 0 0 0 0 0 0 0 0 0 0 0 0 1 1 1 1 0 0 1 1 1 1 1 1 1 1 1 1 1 1 0 0 0 0 0 0 0 0 0
0 0 0 0 0 0 0 0 0 0 0 0 0 0 0 0 0 0 1 1 0 0 0 1 1 1 1 1 1 1 1 1 1 1 0 0 0 0 0 0 0 0 0 0
0 0 0 0 0 0 0 0 0 0 0 0 0 0 0 0 0 0 0 0 0 0 0 0 0 1 0 1 1 1 1 1 1 0 0 0 0 0 0 0 0 0 0 0
0 0 0 0 0 0 0 0 0 0 0 0 0 0 0 0 0 0 0 0 0 0 0 0 0 0 0 0 0 1 1 1 0 0 0 0 0 0 0 0 0 0 0 0
0 0 0 0 0 0 0 0 0 0 0 0 0 0 0 0 0 0 0 0 0 0 0 0 0 0 0 0 0 0 0 0 0 0 0 0 0 0 0 0 0 0 0 0
0 0 0 0 0 0 0 0 0 0 0 0 0 0 0 0 0 0 0 0 0 0 0 0 0 0 1 0 0 0 0 0 0 0 0 0 0 0 0 0 0 0 0 0
0 0 0 0 0 0 0 0 0 0 0 0 0 0 0 0 0 0 0 0 0 0 0 0 0 1 1 1 1 0 0 0 0 0 0 0 0 0 0 0 0 0 0 0
0 0 0 0 0 0 0 0 0 0 0 0 0 0 0 0 0 0 0 0 0 0 0 0 1 1 1 1 1 1 0 0 0 0 0 0 0 0 0 0 0 0 0 0
0 0 0 0 0 0 0 0 0 0 0 0 0 0 0 0 0 0 0 0 0 0 0 1 1 1 1 1 1 1 0 0 0 0 0 0 0 0 0 0 0 0 0 0
0 0 0 0 0 0 0 0 0 0 0 0 0 0 0 0 0 0 0 0 0 0 0 1 1 1 1 1 1 1 1 1 1 0 0 0 0 0 0 0 0 0 0 0
0 0 0 0 0 0 0 0 0 0 0 0 0 0 0 0 0 0 0 0 0 0 1 1 1 1 1 1 1 1 1 1 1 1 1 1 0 0 0 0 0 0 0 0
0 0 0 0 0 0 0 0 0 0 0 0 0 0 0 0 0 0 0 0 0 1 1 1 1 1 2 2 1 1 1 1 1 1 1 1 1 0 0 0 0 0 0 0
0 0 0 0 0 0 0 0 0 0 0 0 0 0 0 0 0 0 0 1 1 1 1 1 1 1 2 2 2 2 1 1 1 1 1 1 1 1 1 0 0 0 0 0
0 0 0 0 0 0 0 0 0 0 0 0 0 0 0 0 0 0 1 1 1 1 1 1 1 1 2 2 2 2 2 1 1 1 1 1 1 1 1 1 1 1 1 1
0 0 0 0 0 0 0 0 0 0 0 0 0 0 0 0 0 1 1 1 1 1 1 1 1 1 2 2 2 2 2 2 1 1 1 1 1 1 1 1 1 1 1 1
0 0 0 0 0 0 0 0 0 0 0 0 0 0 0 1 1 1 1 1 1 1 1 1 2 2 3 3 3 3 2 2 2 1 1 1 1 1 1 1 1 1 1 1
0 0 0 0 0 0 0 0 0 0 1 1 1 1 1 1 1 1 1 1 1 1 1 2 2 3 3 4 4 3 3 2 2 2 2 1 1 1 1 1 1 1 1 1
0 0 0 0 0 0 0 0 0 0 1 1 1 1 1 1 1 1 1 1 1 1 1 2 2 3 3 4 4 4 3 3 3 2 2 2 2 1 1 1 1 1 1 1
0 0 0 0 0 0 0 0 0 0 0 0 0 0 0 1 1 1 1 1 1 1 1 2 2 3 3 3 4 4 3 3 3 2 2 2 2 2 1 1 1 1 1 1
0 0 0 0 0 0 0 0 0 0 0 0 0 0 0 0 1 1 1 1 1 1 2 2 2 3 3 3 3 3 3 3 3 2 2 2 2 1 1 1 1 1 0 0
0 0 0 0 0 0 0 0 0 0 0 0 0 0 0 0 1 1 1 1 1 1 2 2 2 3 3 3 3 3 3 3 3 2 2 2 1 1 1 1 1 0 0 0
Wind_Speed
15 14 14 14 13 12 11 10 9 4 1 5 6 6 8 8 7 7 8 8 8 9 9 10 11 11 12 10 10 9 8 7 6 5 4 4 4 3 3 4 5 4 3 3
16 18 17 15 12 11 11 11 9 5 4 7 6 7 7 7 8 7 8 9 10 11 10 11 12 11 12 12 10 9 8 8 6 5 3 3 4 3 4 4 4 4 3 2
20 15 15 14 13 13 12 10 9 9 7 8 8 7 6 7 7 8 9 9 10 12 13 12 13 12 13 12 12 10 9 8 6 6 4 4 3 3 4 5 3 3 3 3
19 18 15 13 12 13 11 10 10 10 10 7 7 5 6 9 9 10 10 10 11 12 12 12 13 13 12 12 11 9 9 8 6 5 5 6 5 3 5 4 4 4 2 3
18 17 16 15 13 12 11 10 11 12 11 8 4 4 5 10 11 11 12 12 11 12 13 13 13 13 12 12 11 10 9 7 6 5 5 4 4 4 4 5 5 4 3 2
19 17 16 14 13 12 10 10 9 8 7 6 7 7 5 9 12 13 14 14 13 13 14 13 13 13 12 12 12 11 9 8 7 6 6 4 4 4 6 5 5 4 4 3
21 19 17 13 13 10 10 8 4 3 1 6 10 6 5 8 10 13 15 15 15 14 14 14 15 14 13 13 13 12 11 9 8 7 6 5 5 5 5 5 4 3 4 4
17 15 15 14 14 11 11 10 6 5 5 5 6 4 6 8 9 13 15 15 15 15 14 15 15 14 14 14 13 13 11 10 9 7 6 6 6 5 4 3 3 2 2 5
14 12 11 12 13 13 11 10 8 8 12 8 1 2 5 8 11 13 15 16 16 16 17 17 17 16 14 14 13 14 12 10 9 8 7 6 5 3 5 4 2 3 3 5
14 10 10 9 10 14 12 10 6 6 6 6 3 1 2 6 10 14 15 16 16 16 17 17 16 15 14 14 13 14 13 11 10 9 8 8 5 5 5 4 3 3 3 4
12 12 9 7 10 12 9 10 6 5 7 6 2 1 4 9 9 13 15 16 16 17 17 16 15 15 14 14 14 13 13 12 10 9 7 7 7 6 6 4 4 4 4 4
8 9 9 8 9 10 10 9 8 6 6 8 3 2 5 8 9 12 14 16 17 17 16 17 16 16 15 14 14 13 14 13 11 9 8 7 7 7 7 6 5 5 4 4
5 7 7 7 8 7 7 9 10 7 6 7 6 3 4 5 8 11 14 15 15 15 16 16 15 14 14 13 13 13 13 13 12 11 10 8 8 7 6 6 6 5 5 4
7 8 9 10 4 1 6 12 13 9 8 8 6 3 4 5 7 10 13 15 15 15 13 14 13 13 13 12 12 13 12 13 12 11 10 9 8 8 7 6 6 6 5 5
7 11 11 10 6 7 8 13 13 13 13 10 6 2 4 5 7 9 12 15 16 16 15 14 14 13 13 13 12 12 12 11 11 11 10 9 9 8 7 7 7 6 6 6
6 10 10 10 11 10 10 13 16 17 13 11 8 4 6 9 9 9 11 14 15 16 16 15 15 14 14 13 13 12 11 11 11 11 10 10 9 9 8 7 7 7 6 5
6 7 8 11 10 9 11 14 16 13 10 8 6 2 4 7 7 8 10 12 13 16 16 15 15 14 12 13 12 12 11 11 11 10 10 10 10 9 9 9 8 7 7 6
9 7 6 9 7 10 7 8 9 7 6 4 3 2 3 4 5 7 8 9 12 13 15 15 14 14 13 12 12 11 12 12 11 11 11 11 10 10 9 8 8 8 6 6
11 9 8 8 8 8 8 8 6 3 4 4 2 1 2 1 3 4 4 5 6 9 11 12 14 15 14 13 13 12 13 13 13 12 11 11 11 10 10 9 8 7 6 6
9 9 8 8 7 6 4 6 10 5 4 2 1 1 2 1 2 2 2 3 5 5 7 10 13 14 14 14 13 13 14 13 13 13 11 10 10 10 10 9 8 7 6 6
6 6 9 10 9 4 2 6 8 4 1 3 4 3 2 3 2 3 3 2 3 4 5 7 9 9 11 13 13 13 13 12 12 11 10 10 10 9 8 7 7 6 7 7
3 4 6 6 8 2 6 5 3 3 4 4 5 4 3 3 4 4 3 3 2 4 5 7 6 7 8 11 12 12 10 9 9 9 10 9 9 10 9 7 7 6 7 7
4 3 2 1 0 3 4 1 3 5 4 4 5 5 4 4 4 5 4 3 2 2 4 5 6 7 7 9 10 11 9 9 9 9 8 8 8 7 6 8 8 7 6 7
2 2 1 0 2 4 5 6 6 6 5 5 5 6 6 5 4 5 5 4 3 2 1 3 5 7 6 6 7 7 7 8 8 8 8 7 7 7 6 5 7 7 7 8
3 2 0 1 1 2 4 5 6 5 5 4 5 6 6 6 5 5 5 4 3 3 3 3 4 5 6 6 6 6 6 7 7 7 7 7 7 7 6 6 5 6 5 4
3 2 1 1 0 1 1 2 3 3 3 5 6 6 6 7 6 6 6 5 4 4 4 4 5 5 6 6 5 4 5 6 7 7 7 7 6 6 6 6 5 5 4 4
Wind_Direction
224 231 241 246 246 259 277 285 292 325 316 264 241 213 195 190 184 170 165 163 161 157 160 154 157 153 148 144 144 146 148 145 143 148 154 147 146 150 133 123 118 121 115 98
233 233 244 258 266 268 275 282 291 294 263 266 264 241 205 188 180 168 167 169 167 159 158 157 157 155 153 150 151 149 149 150 152 151 142 141 131 137 118 107 120 125 119 116
235 241 238 243 255 262 267 275 286 282 265 252 261 253 212 181 168 159 164 168 166 165 163 162 162 159 156 155 159 156 152 151 153 152 145 130 128 142 133 136 142 130 122 105
244 247 249 249 253 259 266 275 281 280 276 267 251 257 216 181 175 174 169 168 166 164 160 161 162 161 159 157 155 147 145 145 146 153 149 153 159 151 141 138 129 129 122 131
243 245 246 249 253 261 269 277 283 289 291 285 271 255 223 189 188 182 171 169 171 164 160 160 157 155 154 153 152 147 142 144 148 154 147 159 150 144 132 121 125 130 128 134
253 250 248 249 252 258 267 274 289 318 325 295 261 247 211 190 193 180 170 168 167 163 160 155 153 153 155 155 154 149 147 148 152 158 146 148 135 129 127 133 144 162 149 138
248 250 249 246 247 249 256 263 282 306 295 260 256 245 182 183 174 166 165 165 164 164 160 157 156 158 160 160 155 151 152 155 160 159 151 148 137 134 139 152 160 181 152 134
242 244 244 238 239 239 240 246 246 259 251 249 238 236 147 146 140 148 155 159 161 161 160 162 161 161 164 160 154 152 154 158 161 157 150 149 151 164 159 157 148 165 107 117
248 248 262 258 253 244 241 245 248 255 270 277 233 130 107 131 144 148 155 160 164 164 164 165 165 166 167 163 160 158 158 160 160 156 151 154 162 149 127 129 147 126 109 131
256 261 254 252 259 251 248 252 254 267 288 288 305 6 188 180 169 161 164 165 165 167 167 166 167 168 167 164 162 159 160 161 160 157 162 160 158 139 132 146 130 107 104 100
253 255 251 252 240 251 252 253 264 275 278 293 303 302 209 208 193 170 167 165 166 169 170 168 168 167 166 166 164 162 162 163 166 167 169 153 157 152 152 156 147 137 138 138
249 257 255 247 262 271 266 257 252 251 277 290 287 208 244 198 191 174 165 165 167 170 171 168 168 167 168 167 167 166 164 167 170 167 164 160 162 162 165 166 158 154 158 167
280 246 249 245 257 272 266 267 265 255 250 263 270 181 220 192 181 170 163 163 165 170 171 168 166 166 168 169 167 167 168 170 170 169 170 168 168 169 172 165 159 163 172 183
279 258 248 246 230 212 286 285 285 272 255 258 269 174 208 228 184 169 161 162 167 171 172 168 164 165 168 170 169 169 172 171 170 171 174 172 173 172 175 173 166 174 182 189
267 257 247 246 209 195 236 264 273 267 259 260 263 210 181 211 206 177 163 165 170 173 176 171 167 168 170 170 169 172 173 171 171 172 175 172 173 172 176 175 174 177 187 199
274 270 264 251 238 217 220 245 257 255 252 252 242 206 169 199 199 176 169 173 175 178 180 178 172 171 172 173 174 175 173 171 169 174 176 170 173 175 177 178 180 182 193 205
284 278 275 264 247 242 239 232 242 247 247 251 253 235 155 173 176 170 174 180 183 183 182 182 178 175 174 174 173 174 173 169 171 176 177 173 177 179 180 186 185 188 194 200
246 262 260 260 270 259 265 267 248 252 268 269 250 172 141 163 186 176 176 182 187 185 184 181 181 177 177 175 172 173 173 172 176 180 182 178 181 184 182 188 190 190 193 196
240 240 250 252 248 259 275 292 291 266 284 296 260 140 107 138 190 157 152 168 183 187 181 177 181 181 176 176 174 174 178 178 182 185 186 183 183 185 185 190 191 188 190 198
233 222 236 249 249 247 271 315 321 294 244 317 36 70 92 148 182 136 133 175 183 186 177 175 180 181 175 174 171 176 184 183 188 188 187 184 182 185 188 189 187 187 189 201
239 228 236 247 250 240 342 347 336 298 283 10 32 43 40 72 63 84 110 127 166 168 168 167 171 172 169 168 168 178 185 187 186 183 182 182 181 184 185 183 180 184 193 205
253 245 237 246 250 243 29 26 15 300 333 19 34 30 47 57 77 75 75 86 118 148 162 163 156 153 155 161 166 176 182 177 174 177 178 178 177 189 190 180 182 190 199 208
227 243 255 208 263 52 62 88 313 315 349 26 45 30 38 61 66 77 74 58 73 142 154 157 152 149 153 161 169 178 177 166 167 170 170 171 176 186 182 180 188 195 202 218
315 335 278 112 89 16 15 14 339 330 356 16 41 45 40 55 65 67 72 62 57 61 121 147 152 151 150 153 165 171 164 162 167 172 172 171 174 185 186 186 193 203 209 216
295 282 296 61 41 17 22 357 335 346 356 7 43 50 53 61 66 72 78 77 78 90 93 106 121 133 140 145 155 159 153 158 167 173 173 177 187 194 192 193 205 210 212 209
351 347 43 89 59 102 72 19 351 346 3 33 48 51 50 58 66 68 70 68 68 76 84 92 105 118 126 132 138 149 153 157 166 172 177 186 190 191 195 196 204 209 207 173